map of ASB home
Great Circle Mapper logo
ASB - Airport
Location
City:  Ashgabat, Ahal, Turkmenistan
Near (Alt.):Ashkhabad
Name:Ashgabat Airport
Old (Alt.):Saparmurat Turkmenbashy International Airport
ICAO / IATA:UTAA / ASB

Details
Type:Airport (Aerodrome, Airfield)
Use:Public/Civil, International (customs port of entry)
Latitude:3759'13"N (37.986814)
Longitude:5821'39"E (58.360967)
Elevation:692 ft (211 m)
Variation:4.8E (WMM2015 magnetic declination)
Runways:3
Longest:12467 × 151 ft (3800 × 46 m), paved

Time
Time Zone:UTC+5
Local Time:

Weather
METAR:UTAA 212300Z 00000MPS 7000 FEW031CB OVC031 06/02 Q1019 R12/CLRD70 NOSIG
TAF:UTAA 211330Z 2115/2203 33007MPS 3000 -RA BKN010 SCT020CB 530003
TEMPO 2115/2118 06005MPS
TEMPO 2121/2203 2000 BR RA BKN005

Related Locations
Nearby:
Farthest:IPC: 11407 mi / 18358 km
Easter Island (Isla de Pascua, Rapa Nui) [Mataveri Intl], VS, CL

Find:

   beyond  
but within

Other Information
Maps:
NOTAMs:
Links:
Sources:

  
flag of Turkmenistan   

Sectional Chart

Flight Planning
at skyvector.com

Satellite Image

Google Maps Satellite View

 

Copyright © 2004-2014 Karl L. Swartz. All rights reserved.
The Great Circle Mapper name and logo are trademarks of the Great Circle Mapper.
All other trademarks mentioned herein belong to their respective owners.
Please see credits for attibutions and further copyright information.

  Follow gcmap on Facebook Follow gcmap on Twitter

hCard Microformat

Geo Microformat